Wind_Speed
11 11 10 10 10 10 9 10 10 11 11 12 12 12 13 13 13 13 13 13 13 13 13 13 13 13 13 13 13 13 13 13 12 13 13 13 13 13 13 13 13 13 13
13 12 12 12 11 11 12 12 12 12 13 14 14 14 15 15 15 15 15 15 15 15 15 15 15 15 15 15 15 15 15 15 15 15 15 14 15 15 15 15 15 15 15
15 14 13 13 13 13 13 14 14 14 15 16 16 17 17 17 17 17 17 17 17 17 17 17 17 17 17 17 17 17 17 17 17 17 17 17 17 16 17 17 17 17 17
16 16 15 15 14 15 15 15 15 16 16 17 18 18 18 18 19 19 19 19 19 19 19 20 20 20 20 20 20 20 20 20 20 19 19 19 19 19 19 19 19 19 19
18 17 17 16 16 16 16 16 16 17 17 18 18 19 19 19 20 20 20 20 21 21 21 21 22 22 21 22 21 21 22 22 22 22 22 22 22 22 21 21 20 20 20
19 19 18 18 18 17 17 17 17 17 17 18 18 19 20 20 21 21 21 22 22 22 22 22 23 23 23 23 23 23 23 23 23 23 22 23 23 23 23 23 23 22 22
21 20 20 20 20 19 19 19 19 19 19 19 19 19 20 21 21 22 23 23 23 23 23 24 24 25 25 25 25 25 25 25 24 24 24 24 24 24 24 24 24 24 24
22 22 21 21 21 21 20 20 20 20 20 20 21 21 21 22 22 23 23 24 24 25 26 26 26 26 27 27 27 27 27 27 27 27 26 26 26 26 26 25 26 26 26
23 23 23 22 22 22 22 21 21 21 21 22 22 22 23 23 24 25 25 25 26 26 26 27 27 28 28 29 29 29 29 29 29 29 29 29 29 28 28 28 28 28 27
24 23 23 23 22 22 22 22 22 22 23 23 23 24 25 25 25 25 26 26 27 27 27 28 28 29 29 30 30 31 31 32 31 31 31 31 31 31 31 31 30 30 30
23 24 24 23 23 23 23 23 23 24 24 24 24 25 25 26 26 26 26 26 27 28 28 29 30 30 30 30 31 31 32 33 33 33 33 33 33 33 33 33 33 33 32
24 24 23 23 23 23 24 24 24 24 24 24 25 25 26 26 26 27 27 28 28 29 30 31 32 32 32 32 32 32 33 33 34 34 35 35 35 35 35 36 36 35 35
25 24 24 24 24 24 24 24 24 24 25 25 25 26 26 27 27 28 29 29 30 31 31 32 32 32 32 32 32 33 34 34 34 35 35 35 36 36 36 37 37 37 37
25 25 24 24 25 25 24 24 25 25 26 26 27 27 28 28 29 29 30 30 30 31 32 32 32 32 32 33 33 34 34 34 34 34 35 35 36 36 36 36 37 37 38
25 25 25 25 26 26 25 26 26 27 27 28 28 28 29 29 29 30 30 31 31 32 32 32 32 32 33 33 33 33 33 33 34 34 34 35 36 36 36 36 37 38 38
26 26 26 26 26 26 27 27 27 28 29 29 29 29 29 30 30 31 31 31 31 31 31 31 32 32 32 32 32 32 33 33 33 33 34 34 35 36 37 37 38 39 39
26 26 27 26 27 27 28 29 29 29 30 30 30 30 30 31 31 31 31 31 32 32 32 32 32 32 32 32 33 33 34 34 34 34 34 35 35 36 37 38 39 41 40
27 27 27 27 28 29 30 30 30 30 31 31 31 31 31 32 32 32 32 32 32 32 32 32 32 32 32 33 33 33 34 34 34 35 35 36 37 37 38 39 40 40 41
28 28 29 28 29 30 31 31 31 32 32 33 32 32 33 33 34 34 34 33 33 32 32 32 32 32 32 32 33 33 34 34 35 36 36 37 37 38 38 39 40 40 41
28 29 30 30 31 31 31 32 33 34 34 34 34 33 34 34 34 34 33 33 33 32 32 32 32 32 32 32 32 33 34 36 37 38 38 38 38 39 39 40 40 41 42
29 29 31 31 31 31 32 32 32 32 33 34 35 34 34 34 34 34 33 33 33 33 33 33 33 33 33 34 34 35 35 36 37 37 37 37 38 39 39 40 41 42 43
29 30 31 32 32 32 32 32 32 33 33 33 34 34 33 33 34 34 33 33 33 33 34 34 34 34 35 36 37 37 37 38 38 38 38 39 39 39 40 41 41 42 43
30 31 31 32 32 32 32 33 33 34 34 34 33 33 33 33 32 32 33 33 33 34 34 35 36 36 36 37 38 39 39 39 39 40 40 40 40 41 41 42 42 42 42
30 31 31 32 33 33 33 34 34 34 33 33 33 33 33 33 34 34 34 34 35 36 36 37 37 38 39 39 40 40 41 41 41 40 41 42 42 42 42 43 43 43 44
29 30 30 32 33 33 34 34 34 33 33 33 33 33 34 35 35 35 36 37 37 38 39 39 40 40 41 41 41 42 42 42 42 41 41 42 43 44 44 44 44 44 44
28 29 30 30 31 32 32 32 33 33 32 33 34 35 35 36 37 38 38 39 40 40 41 41 42 42 43 43 43 43 43 43 43 43 42 42 42 44 44 44 44 44 44
Wind_Direction
256 258 260 262 265 268 271 274 278 281 284 286 288 289 290 291 291 292 292 291 290 289 288 287 287 287 286 285 283 281 278 277 278 278 277 275 274 274 273 272 271 269 268
256 257 258 262 265 269 272 274 277 280 283 285 286 287 289 290 290 290 291 290 289 288 286 285 285 285 284 283 282 281 279 276 275 274 274 274 273 273 273 272 271 270 269
256 259 260 263 267 270 273 275 277 279 282 283 284 285 286 287 288 288 288 288 288 287 286 285 283 282 282 282 281 280 280 278 275 274 273 272 272 272 272 271 271 271 270
255 258 260 264 268 271 274 277 278 279 281 282 282 283 284 285 285 286 286 285 285 286 286 285 284 283 282 281 281 280 279 278 276 274 273 272 271 271 271 270 270 271 270
255 258 260 264 267 271 274 276 278 279 281 282 283 284 284 285 285 285 285 284 283 283 284 284 284 284 283 281 281 280 278 277 276 275 273 272 271 270 270 270 270 270 270
255 257 260 263 266 269 271 274 276 279 281 283 285 286 286 286 285 284 284 284 284 284 283 283 283 283 282 280 280 279 278 277 276 275 274 273 272 271 270 269 269 269 268
256 258 261 263 265 267 269 272 275 278 281 284 285 287 288 288 287 286 284 284 284 284 284 283 283 282 281 279 278 277 277 276 275 274 274 273 272 272 271 270 268 268 267
255 258 261 262 264 265 268 271 274 278 280 282 284 285 286 286 287 286 286 285 284 284 284 283 282 282 280 279 277 276 275 275 275 274 273 272 272 271 271 270 269 268 267
256 257 259 260 262 265 267 271 274 276 279 281 283 284 285 286 287 286 286 285 285 284 284 283 282 281 280 279 277 276 275 274 274 273 273 272 271 271 271 270 270 269 269
255 256 257 258 261 264 267 270 273 275 278 281 283 284 285 286 287 287 286 285 285 285 284 283 283 281 280 279 278 276 275 274 272 272 272 271 271 270 270 270 269 269 269
254 255 255 256 260 263 267 270 273 276 278 280 282 284 286 286 287 287 286 286 285 285 284 283 283 282 281 280 279 278 276 274 273 272 271 270 270 270 270 270 269 269 269
253 253 254 257 261 264 268 270 272 275 278 280 282 284 285 286 286 286 286 286 286 285 285 284 283 281 280 279 279 278 278 276 274 273 272 270 270 269 269 269 269 269 269
251 251 254 257 261 264 267 269 272 275 278 280 282 284 285 286 287 287 287 287 286 286 285 285 283 281 280 279 279 279 278 277 276 274 273 272 270 269 269 269 269 268 268
250 251 254 257 260 263 266 268 271 274 277 279 281 283 285 286 287 288 288 287 287 286 286 285 283 281 280 279 279 279 279 278 277 276 274 273 272 271 269 268 268 268 268
250 252 254 256 259 262 264 268 272 275 277 279 281 282 284 285 287 288 288 288 288 288 286 284 283 282 280 279 279 279 280 280 279 277 276 274 273 272 270 269 268 267 267
250 252 254 256 258 261 264 268 271 274 277 278 279 281 283 285 286 287 287 288 288 289 288 286 284 282 281 280 280 280 280 280 279 278 277 276 275 273 271 269 268 267 267
250 252 255 257 258 260 264 268 271 273 274 276 278 280 283 284 286 287 288 288 288 288 287 286 285 283 282 281 281 281 280 280 279 278 277 276 276 275 272 270 269 268 267
252 255 257 258 259 262 266 270 272 273 274 276 278 280 283 285 286 287 288 288 289 289 288 287 285 284 283 282 281 281 280 280 281 279 278 277 276 275 274 271 269 269 267
253 256 257 259 262 264 267 269 271 272 275 277 278 280 282 284 285 286 287 288 289 289 289 288 287 286 284 283 283 282 281 282 282 282 280 278 277 276 274 272 270 269 269
254 256 259 261 264 267 268 269 271 274 275 276 278 280 282 283 284 285 286 286 287 287 288 288 287 287 286 285 284 284 284 284 284 283 282 280 278 277 275 273 271 270 270
255 257 261 262 265 267 269 271 273 275 276 277 278 280 281 281 282 283 285 286 286 286 287 287 287 287 286 286 285 285 286 286 286 286 285 283 281 279 277 276 274 273 272
257 259 262 263 265 267 270 272 275 277 279 280 281 281 281 282 283 283 285 286 286 286 287 287 287 287 287 286 286 287 286 286 286 287 286 284 282 280 278 276 276 274 273
258 260 262 264 266 268 270 273 276 280 280 280 281 282 282 283 283 284 286 287 288 288 288 288 288 288 288 288 287 287 287 287 287 287 286 283 282 280 278 277 276 275 274
259 262 263 265 267 269 272 275 277 280 280 281 282 283 283 284 285 285 286 287 287 287 288 288 288 289 290 289 289 288 287 286 286 285 285 283 281 280 279 278 277 276 275
261 264 265 268 269 271 273 275 277 279 279 280 281 283 284 285 285 285 287 287 287 287 287 288 289 290 290 290 290 289 288 286 285 285 284 282 281 281 280 279 278 276 275
263 265 267 270 270 271 274 276 278 279 280 281 282 283 284 285 286 285 286 287 286 287 287 288 289 289 289 289 289 289 288 287 286 285 284 282 281 280 280 279 278 277 275
Height
5882 5882 5882 5883 5883 5883 5883 5883 5884 5884 5884 5884 5883 5883 5883 5882 5882 5882 5881 5880 5880 5879 5879 5878 5878 5877 5877 5876 5876 5875 5875 5875 5874 5874 5873 5873 5873 5872 5872 5871 5871 5871 5870
5879 5880 5881 5881 5881 5881 5881 5882 5882 5882 5882 5882 5881 5881 5881 5880 5880 5879 5879 5878 5878 5877 5877 5876 5876 5875 5874 5874 5873 5873 5872 5872 5872 5871 5871 5871 5870 5870 5869 5869 5869 5869 5868
5877 5878 5878 5879 5879 5879 5879 5879 5879 5879 5879 5879 5879 5878 5878 5878 5877 5877 5876 5876 5875 5874 5874 5873 5873 5872 5872 5871 5870 5870 5870 5869 5869 5868 5868 5868 5867 5867 5867 5866 5866 5866 5865
5874 5875 5875 5876 5876 5877 5877 5877 5877 5877 5876 5876 5876 5876 5875 5875 5874 5874 5873 5873 5872 5871 5871 5870 5870 5869 5868 5868 5867 5867 5866 5866 5865 5865 5864 5864 5864 5864 5863 5863 5863 5862 5862
5871 5872 5872 5873 5873 5874 5874 5874 5874 5874 5873 5873 5873 5872 5872 5871 5871 5870 5870 5869 5868 5868 5867 5867 5866 5865 5865 5864 5863 5863 5862 5862 5861 5861 5861 5860 5860 5860 5859 5859 5859 5859 5858
5867 5868 5869 5870 5870 5870 5871 5871 5870 5870 5870 5870 5869 5869 5868 5868 5867 5866 5866 5865 5864 5864 5863 5862 5862 5861 5861 5860 5859 5859 5858 5857 5857 5857 5856 5856 5855 5855 5855 5855 5855 5855 5854
5863 5864 5865 5866 5866 5867 5867 5867 5867 5867 5867 5866 5866 5865 5865 5864 5863 5862 5862 5861 5860 5859 5859 5858 5857 5856 5856 5855 5855 5854 5853 5853 5852 5852 5852 5851 5851 5850 5850 5850 5850 5850 5850
5859 5860 5861 5862 5862 5863 5863 5863 5863 5863 5863 5862 5862 5861 5861 5860 5859 5858 5857 5856 5856 5855 5854 5853 5852 5851 5851 5850 5849 5849 5848 5848 5847 5847 5847 5846 5846 5846 5845 5845 5845 5845 5845
5855 5856 5857 5857 5858 5859 5859 5859 5859 5859 5859 5858 5857 5857 5856 5855 5854 5853 5852 5851 5850 5850 5849 5848 5847 5846 5845 5844 5844 5843 5843 5842 5842 5841 5841 5841 5840 5840 5840 5840 5839 5839 5839
5850 5851 5852 5853 5853 5854 5854 5855 5855 5854 5854 5854 5853 5852 5851 5850 5849 5848 5847 5846 5845 5844 5843 5842 5841 5840 5839 5838 5837 5837 5836 5836 5835 5835 5835 5834 5834 5834 5834 5833 5833 5833 5833
5845 5846 5847 5848 5849 5849 5850 5850 5850 5850 5849 5849 5848 5847 5846 5845 5844 5843 5842 5840 5839 5838 5837 5836 5835 5834 5833 5832 5831 5830 5829 5829 5828 5828 5828 5827 5827 5827 5827 5826 5826 5826 5826
5840 5841 5842 5843 5844 5845 5845 5845 5845 5845 5844 5844 5843 5842 5841 5840 5838 5837 5836 5835 5833 5832 5831 5829 5828 5827 5826 5825 5824 5823 5822 5821 5821 5820 5820 5820 5819 5819 5819 5819 5819 5819 5819
5834 5836 5837 5838 5839 5839 5840 5840 5840 5839 5839 5838 5838 5836 5835 5834 5833 5832 5830 5828 5827 5826 5824 5822 5821 5820 5819 5818 5817 5815 5814 5814 5813 5812 5812 5811 5811 5811 5811 5811 5811 5811 5811
5829 5830 5831 5832 5833 5834 5834 5835 5834 5834 5833 5833 5832 5831 5830 5828 5827 5826 5824 5822 5820 5819 5817 5815 5814 5812 5811 5810 5809 5808 5806 5806 5805 5804 5804 5803 5803 5803 5802 5802 5802 5802 5802
5823 5824 5826 5827 5828 5828 5829 5829 5829 5828 5828 5827 5826 5825 5824 5822 5821 5819 5817 5816 5814 5812 5809 5808 5806 5805 5803 5802 5801 5800 5799 5798 5797 5796 5795 5795 5794 5794 5794 5794 5794 5793 5793
5818 5819 5820 5821 5822 5822 5823 5823 5823 5822 5821 5820 5820 5819 5817 5816 5815 5813 5811 5809 5807 5805 5802 5800 5799 5797 5796 5795 5793 5792 5791 5790 5789 5788 5787 5786 5786 5785 5785 5785 5784 5784 5784
5812 5813 5814 5815 5815 5816 5816 5816 5816 5816 5815 5814 5813 5812 5811 5809 5808 5806 5804 5802 5800 5797 5795 5793 5791 5790 5788 5787 5786 5785 5783 5782 5781 5780 5779 5778 5777 5776 5776 5775 5775 5775 5774
5806 5808 5808 5809 5809 5810 5810 5810 5810 5809 5808 5807 5806 5805 5804 5802 5800 5799 5797 5795 5793 5790 5788 5786 5784 5782 5781 5780 5778 5777 5775 5774 5773 5771 5770 5769 5768 5767 5766 5766 5765 5765 5765
5801 5802 5803 5803 5803 5804 5803 5803 5802 5802 5801 5800 5799 5798 5796 5795 5793 5791 5790 5788 5785 5783 5781 5779 5777 5775 5774 5772 5770 5769 5767 5766 5764 5762 5761 5759 5758 5757 5757 5756 5755 5755 5755
5795 5796 5796 5797 5797 5797 5796 5796 5795 5794 5793 5792 5791 5790 5789 5787 5785 5784 5782 5780 5778 5776 5774 5772 5770 5768 5766 5765 5763 5761 5759 5757 5755 5753 5751 5749 5748 5747 5746 5746 5745 5745 5744
5788 5789 5790 5790 5790 5790 5789 5788 5787 5787 5786 5785 5784 5783 5781 5780 5778 5776 5774 5773 5771 5769 5767 5765 5763 5761 5759 5757 5755 5753 5751 5749 5746 5744 5742 5740 5738 5737 5736 5735 5735 5734 5734
5782 5783 5783 5783 5783 5783 5782 5781 5780 5779 5778 5777 5776 5775 5773 5772 5770 5768 5767 5765 5763 5761 5759 5757 5755 5753 5751 5749 5747 5745 5743 5741 5738 5735 5733 5730 5729 5727 5726 5725 5724 5723 5723
5776 5776 5776 5776 5776 5776 5775 5774 5773 5772 5771 5770 5768 5767 5766 5764 5762 5761 5759 5757 5755 5754 5751 5749 5747 5745 5743 5740 5738 5736 5733 5731 5729 5726 5723 5720 5718 5717 5715 5714 5713 5712 5711
5769 5769 5769 5769 5769 5769 5768 5767 5766 5765 5763 5762 5761 5759 5758 5756 5755 5753 5751 5749 5747 5745 5743 5741 5738 5736 5733 5731 5728 5725 5723 5721 5718 5716 5713 5710 5708 5706 5704 5703 5702 5701 5700
5762 5763 5763 5762 5762 5761 5761 5760 5758 5757 5756 5754 5753 5752 5750 5749 5747 5745 5743 5741 5739 5736 5734 5731 5729 5726 5723 5721 5718 5715 5712 5709 5707 5705 5703 5700 5697 5695 5693 5691 5690 5689 5688
5756 5756 5756 5755 5754 5754 5753 5752 5750 5749 5748 5747 5745 5744 5742 5740 5738 5736 5734 5731 5729 5726 5724 5721 5718 5716 5713 5710 5707 5704 5701 5698 5695 5693 5691 5688 5686 5683 5681 5679 5678 5676 5675